Weather in Balaam

Russia / Republic of Karelia     61°23′23″N   30°56′48″E
temp.,
°C
wind,
m/s
gust,
m/s
humid.,
%
clouds,
%
prec.,
mm/h
press.,
hPa
HPBL,
m
2 march, tue
tue200:000wnw7118433 0.0 1007163
03:00−1wnw6108317 0.0 1008117
06:00−2wnw610860 0.0 1006139
09:00−2wnw712862 0.0 1008225
12:000nw7138411 0.0 1010562
15:00+1nw7137638 0.1 1012427
18:00−1nw7127733 0.1 1013173
21:00−2wnw568717 0.1 101582
3 march, wed
wed300:00−2wnw58890 0.0 1014109
03:00−2wnw610880 0.0 1014153
06:00−3wnw712890 0.0 1012218
09:00−4w610919 0.0 1011188
12:00−1w6118878 0.0 1008363
15:000w6128489 0.0 1005557
18:000w81490100 0.1 1002426
21:00−2wnw8137860 0.2 1002237
4 march, thu
thu400:00−5nw711820 0.0 1002220
03:00−6nw69880 0.0 1003161
06:00−7nw57910 0.0 1002139
09:00−8nnw479339 0.0 1003183
12:00−6nnw469098 0.1 1003379
15:00−4nnw478399 0.1 1004719
18:00−5nw5885100 0.1 1004276
21:00−7nw588972 0.1 1005175
5 march, fri
fri500:00−9nnw58910 0.0 1005164
03:00−9nnw589349 0.0 1007200
06:00−9nnw589292 0.1 1008268
09:00−10n579392 0.1 1009198
12:00−8nnw3483100 0.0 1011302
15:00−7wnw347960 0.0 1012200
18:00−8nw578351 0.0 1013191
21:00−9nw459126 0.0 1014103
6 march, sat
sat600:00−10nw45910 0.0 101593
03:00−10wnw34930 0.0 101576
06:00−10wsw349227 0.0 101385
09:00−9sw579215 0.0 1011138
12:00−6sw7108386 0.0 1007441
15:00−4ssw10149293 0.2 1001930
18:00−4ssw111694100 0.9 994722
21:00−2wsw71194100 2.0 989332